N4TLC Weather Reports


time (UTC)temp
C
wind
direction
speed
KPH
gust
KPH
rain 1hr
cm
rain 24hr
cm
rain mn
cm
humidity
%
barometer
mb
20260508071339 7 89 0.0 3.2 0.00 0.00 0.00 98 1016.4
20260508070836 7 173 0.0 0.0 0.00 0.00 0.00 98 1016.3
20260508070334 7 115 1.6 3.2 0.00 0.00 0.00 98 1016.4
20260508065831 7 120 1.6 3.2 0.00 0.00 0.00 98 1016.1
20260508065329 7 118 1.6 3.2 0.00 0.00 0.00 98 1016.4
20260508064827 7 104 3.2 3.2 0.00 0.00 0.00 98 1016.2
20260508064324 8 115 1.6 3.2 0.00 0.00 0.00 98 1016.4
20260508063822 8 131 3.2 3.2 0.00 0.00 0.00 98 1016.3
20260508063320 8 121 1.6 3.2 0.00 0.00 0.00 98 1016.4
20260508062816 8 118 3.2 4.8 0.00 0.00 0.00 97 1016.6
20260508062314 8 122 3.2 3.2 0.00 0.00 0.00 97 1016.4
20260508061810 8 104 0.0 3.2 0.00 0.00 0.00 98 1016.4
20260508061308 8 82 0.0 3.2 0.00 0.00 0.00 98 1016.5
20260508060805 8 111 0.0 0.0 0.00 0.00 0.00 98 1016.5
20260508060303 8 158 1.6 1.6 0.00 0.00 0.00 98 1016.4
20260508055803 8 116 0.0 1.6 0.00 0.00 0.00 98 1016.4
20260508055301 8 113 0.0 0.0 0.00 0.00 0.00 98 1016.4
20260508054756 8 76 0.0 1.6 0.00 0.00 0.00 98 1016.5
20260508054255 8 135 0.0 1.6 0.00 0.00 0.00 98 1016.5
20260508053751 8 135 0.0 0.0 0.00 0.00 0.00 98 1016.3
20260508053249 8 120 0.0 1.6 0.00 0.00 0.00 98 1016.3
20260508052746 8 113 0.0 1.6 0.00 0.00 0.00 98 1016.2
20260508052243 9 157 0.0 0.0 0.00 0.00 0.00 98 1016.2
20260508051739 9 212 0.0 0.0 0.00 0.00 0.00 98 1016.4
20260508051234 9 141 0.0 1.6 0.00 0.00 0.00 98 1016.3
20260508050731 9 113 0.0 1.6 0.00 0.00 0.00 98 1016.2
20260508050229 9 121 0.0 0.0 0.00 0.00 0.00 98 1016.2
20260508045724 9 209 0.0 0.0 0.00 0.00 0.00 98 1016.0
20260508045222 9 48 0.0 3.2 0.00 0.00 0.00 98 1016.1
20260508044719 9 59 0.0 3.2 0.00 0.00 0.00 98 1016.0
20260508044216 9 119 0.0 1.6 0.00 0.00 0.00 98 1016.0
20260508043712 9 136 1.6 3.2 0.00 0.00 0.00 98 1016.2
20260508043210 9 131 0.0 1.6 0.00 0.00 0.00 98 1015.9
20260508042706 10 124 0.0 1.6 0.00 0.00 0.00 98 1015.8
20260508042204 10 119 0.0 1.6 0.00 0.00 0.00 98 1015.8
20260508041659 10 116 0.0 1.6 0.00 0.00 0.00 98 1015.8
20260508041157 10 103 0.0 1.6 0.00 0.00 0.00 98 1015.7
20260508040653 10 116 0.0 3.2 0.00 0.00 0.00 98 1015.7
20260508040151 10 124 0.0 1.6 0.00 0.00 0.00 98 1015.7
20260508035648 10 126 1.6 1.6 0.00 1.22 1.22 98 1015.6
20260508035145 10 128 1.6 1.6 0.00 1.22 1.22 98 1015.6
20260508034642 10 74 0.0 1.6 0.00 1.22 1.22 97 1015.6
20260508034138 10 96 1.6 3.2 0.00 1.22 1.22 97 1015.7
20260508033636 10 94 1.6 3.2 0.00 1.22 1.22 97 1015.7
20260508033134 10 102 1.6 3.2 0.00 1.22 1.22 97 1015.8
20260508032630 10 106 1.6 3.2 0.00 1.22 1.22 97 1015.5
20260508032128 10 84 1.6 3.2 0.00 1.22 1.22 97 1015.4
20260508031625 10 92 1.6 3.2 0.00 1.22 1.22 97 1015.3
20260508031121 10 116 0.0 1.6 0.00 1.22 1.22 97 1015.3
20260508030618 10 66 0.0 1.6 0.00 1.22 1.22 97 1015.2
20260508030116 10 123 0.0 3.2 0.00 1.22 1.22 97 1015.4
20260508025612 11 134 1.6 1.6 0.00 1.22 1.22 97 1015.2
20260508025109 11 121 0.0 1.6 0.00 1.22 1.22 97 1015.4
20260508024604 11 130 0.0 0.0 0.00 1.22 1.22 97 1015.4
20260508024102 11 48 0.0 3.2 0.00 1.22 1.22 97 1015.4
20260508023558 11 61 1.6 1.6 0.00 1.22 1.22 97 1015.2
20260508023056 11 48 0.0 0.0 0.00 1.22 1.22 97 1015.1
20260508022551 11 116 0.0 3.2 0.00 1.22 1.22 97 1015.0
20260508022049 11 121 0.0 3.2 0.00 1.22 1.22 97 1014.9
20260508021544 11 124 0.0 1.6 0.00 1.22 1.22 96 1014.9
20260508021040 11 128 1.6 1.6 0.00 1.22 1.22 96 1014.9
20260508020538 11 122 1.6 3.2 0.00 1.22 1.22 96 1014.7
20260508020035 11 137 1.6 3.2 0.00 1.22 1.22 96 1014.4
20260508015533 11 126 0.0 3.2 0.00 1.22 1.22 96 1014.4
20260508015030 11 126 1.6 3.2 0.00 1.22 1.22 96 1014.4
20260508014526 11 129 0.0 3.2 0.00 1.22 1.22 95 1014.3
20260508014022 12 110 1.6 3.2 0.00 1.22 1.22 95 1014.0
20260508013518 12 129 0.0 3.2 0.00 1.22 1.22 95 1013.9
20260508013016 12 124 0.0 3.2 0.00 1.22 1.22 95 1014.0
20260508012513 12 151 0.0 3.2 0.00 1.22 1.22 95 1013.9
20260508012010 12 113 0.0 1.6 0.00 1.22 1.22 95 1013.7
20260508011509 12 108 1.6 3.2 0.00 1.22 1.22 94 1013.7
20260508011006 12 117 3.2 3.2 0.00 1.22 1.22 94 1013.6
20260508010502 12 89 1.6 3.2 0.00 1.22 1.22 94 1013.3
20260508010000 12 88 1.6 3.2 0.00 1.22 1.22 94 1013.4
20260508005456 13 89 1.6 3.2 0.00 1.22 1.22 94 1013.6
20260508004953 13 105 0.0 1.6 0.00 1.22 1.22 93 1013.6
20260508004449 13 80 0.0 1.6 0.00 1.22 1.22 93 1013.5
20260508003946 13 128 1.6 3.2 0.00 1.22 1.22 93 1013.5
20260508003443 13 88 3.2 3.2 0.00 1.22 1.22 93 1013.5
20260508002940 13 87 1.6 1.6 0.00 1.22 1.22 93 1013.7
20260508002436 13 111 1.6 3.2 0.00 1.22 1.22 92 1013.6
20260508001932 13 91 1.6 3.2 0.00 1.22 1.22 92 1013.7
20260508001429 13 103 0.0 1.6 0.00 1.22 1.22 92 1013.6
20260508000925 13 62 1.6 3.2 0.00 1.22 1.22 92 1013.6
20260508000421 13 103 0.0 3.2 0.00 1.22 1.22 92 1013.7
20260507235918 13 62 0.0 1.6 0.00 1.22 1.22 92 1013.3
20260507235415 13 89 0.0 1.6 0.00 1.22 1.22 92 1013.4
20260507234912 13 134 0.0 1.6 0.00 1.22 1.22 92 1013.3
20260507234409 13 143 1.6 1.6 0.00 1.22 1.22 92 1013.1
20260507233905 13 101 1.6 3.2 0.00 1.22 1.22 91 1013.2
20260507233403 13 77 1.6 3.2 0.00 1.22 1.22 91 1012.9
20260507232901 13 77 3.2 6.4 0.00 1.22 1.22 91 1012.7
20260507232357 13 61 3.2 3.2 0.00 1.22 1.22 91 1012.9
20260507231855 13 83 1.6 3.2 0.00 1.22 1.22 91 1012.8
20260507231351 13 93 0.0 3.2 0.00 1.22 1.22 91 1012.6
20260507230847 13 107 3.2 3.2 0.00 1.22 1.22 91 1012.6
20260507230345 13 68 3.2 6.4 0.00 1.22 1.22 91 1012.5
20260507225844 13 68 4.8 4.8 0.00 1.22 1.22 91 1012.4
20260507225341 13 52 1.6 4.8 0.00 1.22 1.22 92 1012.3
20260507224837 13 101 1.6 4.8 0.00 1.22 1.22 91 1012.3
20260507224334 13 108 3.2 8.0 0.00 1.22 1.22 92 1012.4
20260507223830 13 76 6.4 6.4 0.00 1.22 1.22 93 1012.2
20260507223326 13 84 3.2 4.8 0.00 1.22 1.22 93 1012.2
20260507222824 13 63 3.2 4.8 0.00 1.22 1.22 93 1012.3
20260507222320 13 56 1.6 3.2 0.00 1.22 1.22 93 1012.4
20260507221817 13 62 4.8 8.0 0.00 1.22 1.22 93 1012.0
20260507221313 13 115 1.6 4.8 0.00 1.22 1.22 93 1011.9
20260507220809 13 87 1.6 6.4 0.00 1.22 1.22 93 1011.9
20260507220308 13 69 8.0 8.0 0.00 1.22 1.22 93 1012.0
20260507215804 13 105 1.6 4.8 0.00 1.22 1.22 93 1011.9
20260507215301 13 120 3.2 6.4 0.00 1.22 1.22 93 1012.0
20260507214758 13 122 3.2 4.8 0.00 1.22 1.22 94 1011.8
20260507214256 13 73 6.4 6.4 0.00 1.22 1.22 94 1011.9
20260507213750 13 116 0.0 6.4 0.00 1.22 1.22 93 1011.9
20260507213248 13 98 1.6 8.0 0.00 1.22 1.22 93 1011.9
20260507212744 13 96 4.8 8.0 0.00 1.22 1.22 94 1011.6
20260507212241 13 62 3.2 6.4 0.00 1.22 1.22 94 1011.5
20260507211737 13 85 3.2 8.0 0.00 1.22 1.22 94 1011.7
20260507211234 13 61 6.4 8.0 0.00 1.22 1.22 94 1011.8
20260507210731 13 67 6.4 6.4 0.00 1.22 1.22 94 1011.8
20260507210228 13 86 1.6 6.4 0.00 1.22 1.22 94 1012.0
20260507205724 13 99 3.2 6.4 0.00 1.22 1.22 95 1011.7
20260507205221 13 54 3.2 8.0 0.00 1.22 1.22 95 1011.7
20260507204717 13 91 3.2 8.0 0.00 1.22 1.22 94 1011.8
20260507204215 13 76 3.2 6.4 0.00 1.22 1.22 94 1011.8
20260507203713 14 51 0.0 6.4 0.00 1.22 1.22 95 1011.7
20260507203210 13 120 1.6 4.8 0.00 1.22 1.22 96 1011.6
20260507202706 13 75 3.2 6.4 0.30 1.22 1.22 95 1011.5
20260507202202 13 92 3.2 6.4 0.71 1.22 1.22 95 1011.8
20260507201657 13 2 0.0 8.0 0.79 1.17 1.17 95 1011.8
20260507201154 13 95 3.2 6.4 0.71 1.09 1.09 94 1011.8
20260507200650 13 80 6.4 6.4 0.61 1.04 1.04 93 1012.0
20260507200146 13 44 0.0 4.8 0.48 0.97 0.97 92 1012.2
20260507195643 13 106 3.2 6.4 0.13 0.91 0.91 91 1011.7
20260507195140 13 81 3.2 8.0 0.00 0.89 0.89 89 1011.4
20260507194637 13 80 4.8 8.0 0.00 0.89 0.89 88 1011.8
20260507194132 14 39 4.8 9.7 0.00 0.89 0.89 88 1012.0
20260507193630 14 79 6.4 6.4 0.00 0.89 0.89 89 1011.6
20260507193127 14 57 4.8 6.4 0.00 0.89 0.89 88 1011.7
20260507192623 15 97 3.2 9.7 0.00 0.89 0.89 88 1011.6
20260507192120 14 98 3.2 8.0 0.00 0.89 0.89 88 1011.4
20260507191615 15 74 9.7 11.3 0.00 0.89 0.89 88 1011.5
20260507191112 15 66 6.4 9.7 0.00 0.89 0.89 87 1011.5
20260507190610 15 80 6.4 9.7 0.00 0.89 0.89 87 1011.4
20260507190109 15 79 4.8 6.4 0.00 0.89 0.89 89 1011.6
20260507185607 15 102 3.2 6.4 0.00 0.89 0.89 89 1011.7
20260507185103 15 102 4.8 9.7 0.00 0.89 0.89 89 1011.6
20260507184601 15 59 4.8 6.4 0.00 0.89 0.89 89 1011.6
20260507184059 15 66 4.8 11.3 0.00 0.89 0.89 90 1011.6
20260507183554 15 59 6.4 8.0 0.00 0.89 0.89 90 1011.6
20260507183052 15 72 4.8 8.0 0.00 0.89 0.89 90 1011.7
20260507182548 15 79 4.8 6.4 0.00 0.89 0.89 90 1011.9
20260507182044 15 52 6.4 12.9 0.00 0.89 0.89 90 1011.9
20260507181541 15 71 8.0 9.7 0.00 0.89 0.89 91 1011.8
20260507181037 15 81 3.2 6.4 0.00 0.89 0.89 92 1011.7
20260507180533 15 99 3.2 11.3 0.00 0.89 0.89 92 1011.3
20260507180031 15 83 4.8 12.9 0.00 0.89 0.89 92 1011.5
20260507175527 15 70 4.8 11.3 0.00 0.89 0.89 92 1011.5
20260507175025 15 84 3.2 8.0 0.00 0.89 0.89 92 1011.5
20260507174521 15 82 4.8 6.4 0.00 0.89 0.89 91 1011.8
20260507174019 15 53 8.0 12.9 0.00 0.89 0.89 91 1011.9
20260507173516 16 43 0.0 9.7 0.00 0.89 0.89 91 1012.0
20260507173013 16 59 4.8 9.7 0.00 0.89 0.89 91 1012.0
20260507172509 16 79 3.2 8.0 0.00 0.89 0.89 90 1011.9
20260507172006 16 76 3.2 6.4 0.00 0.89 0.89 91 1011.7
20260507171501 16 78 8.0 8.0 0.00 0.89 0.89 91 1011.7
20260507171000 17 71 3.2 6.4 0.00 0.89 0.89 91 1011.7
20260507170455 17 56 4.8 8.0 0.00 0.89 0.89 91 1011.8
20260507165952 17 92 3.2 4.8 0.00 0.89 0.89 91 1011.6
20260507165448 17 35 3.2 6.4 0.00 0.89 0.89 90 1011.6
20260507164944 17 92 1.6 8.0 0.00 0.89 0.89 90 1011.4
20260507164441 17 88 1.6 9.7 0.00 0.89 0.89 90 1011.3
20260507163938 17 59 9.7 14.5 0.00 0.89 0.89 90 1011.3
20260507163435 17 39 6.4 8.0 0.00 0.89 0.89 91 1011.1
20260507162932 17 64 3.2 8.0 0.00 0.89 0.89 91 1011.1
20260507162427 17 84 4.8 9.7 0.00 0.89 0.89 91 1010.9
20260507161925 17 82 3.2 9.7 0.00 0.89 0.89 92 1011.1
20260507161421 18 61 8.0 8.0 0.00 0.89 0.89 92 1011.2
20260507160918 19 97 4.8 9.7 0.00 0.89 0.89 95 1011.3
20260507160414 18 109 0.0 3.2 0.00 0.89 0.89 96 1011.2
20260507155910 18 340 1.6 1.6 0.00 0.89 0.89 96 1011.3
20260507155406 18 37 0.0 3.2 0.00 0.89 0.89 96 1011.5
20260507154903 18 106 1.6 1.6 0.00 0.89 0.89 96 1011.7
20260507154400 18 141 0.0 1.6 0.00 0.89 0.89 97 1011.6
20260507153857 18 136 1.6 3.2 0.00 0.89 0.89 97 1011.9
20260507153619 17 284 0.0 3.2 0.00 0.89 0.89 97 0.1
20260507153353 17 284 0.0 3.2 0.00 0.89 0.89 97 1012.2
20260507153215 18 333 0.0 3.2 0.00 0.89 0.89 97 1012.0
20260507152850 18 333 0.0 3.2 0.00 0.89 0.89 97 1012.0
20260507152556 18 138 1.6 3.2 0.00 0.89 0.89 97 1012.0
20260507152346 18 147 0.0 1.6 0.00 0.89 0.89 97 1011.9
20260507151842 18 138 1.6 3.2 0.00 0.89 0.89 97 1012.0
20260507151338 18 157 0.0 1.6 0.00 0.89 0.89 98 1012.0
20260507150836 17 261 1.6 1.6 0.00 0.89 0.89 98 1012.3
20260507150332 17 277 3.2 3.2 0.00 0.89 0.89 98 1012.4
20260507145829 17 254 0.0 3.2 0.00 0.89 0.89 98 1012.8
20260507145325 17 186 0.0 4.8 0.05 0.89 0.89 98 1012.2
20260507144822 17 142 0.0 1.6 0.13 0.89 0.89 98 1011.8
20260507144320 17 151 0.0 0.0 0.13 0.89 0.89 98 1011.6
20260507143816 17 140 1.6 3.2 0.05 0.86 0.86 98 1011.7
20260507143313 17 140 0.0 1.6 0.00 0.86 0.86 98 1011.7
20260507142809 17 135 0.0 1.6 0.05 0.86 0.86 98 1011.8
20260507142307 17 129 0.0 1.6 0.05 0.86 0.86 98 1011.6
20260507141803 17 129 0.0 1.6 0.00 0.86 0.86 98 1011.7
20260507141300 17 142 0.0 1.6 0.00 0.86 0.86 98 1011.6
20260507140755 17 220 0.0 1.6 0.05 0.86 0.86 98 1012.0
20260507140253 17 142 0.0 0.0 0.13 0.86 0.86 98 1012.0
20260507135750 17 357 1.6 3.2 0.13 0.84 0.84 98 1011.8
20260507135247 17 335 0.0 3.2 0.05 0.81 0.81 98 1011.6
20260507134743 17 98 3.2 3.2 0.30 0.81 0.81 98 1011.1
20260507134240 17 52 0.0 1.6 0.43 0.81 0.81 98 1011.3
20260507133736 17 111 3.2 3.2 0.30 0.76 0.76 98 1011.2
20260507133233 17 117 1.6 3.2 0.18 0.74 0.74 98 1011.2
20260507132730 17 138 1.6 3.2 0.18 0.71 0.71 98 1011.5
20260507132227 17 119 0.0 1.6 0.30 0.71 0.71 98 1011.7
20260507131724 17 168 1.6 4.8 0.48 0.69 0.69 98 1011.8
20260507131221 17 186 0.0 3.2 0.79 0.66 0.66 98 1012.0
20260507130718 17 213 0.0 3.2 0.71 0.58 0.58 98 1012.2
20260507130216 17 89 0.0 4.8 0.79 0.51 0.51 98 1012.4
20260507125714 17 128 0.0 3.2 0.79 0.46 0.46 98 1012.6
20260507125212 17 26 3.2 3.2 0.48 0.38 0.38 98 1012.6
20260507124708 17 166 0.0 3.2 0.23 0.33 0.33 98 1012.9
20260507124205 17 143 0.0 3.2 0.13 0.30 0.30 98 1013.1
20260507123703 17 228 0.0 1.6 0.13 0.28 0.28 98 1013.0
20260507123200 17 282 1.6 3.2 0.13 0.28 0.28 98 1012.9
20260507122655 17 271 0.0 3.2 0.05 0.28 0.28 98 1012.5
20260507122151 17 182 1.6 3.2 0.05 0.25 0.25 98 1012.5
20260507121647 17 191 1.6 3.2 0.05 0.25 0.25 98 1012.4
20260507121143 17 44 0.0 3.2 0.05 0.25 0.25 98 1012.5
20260507120640 17 155 0.0 4.8 0.18 0.25 0.25 98 1012.6
20260507120136 17 118 3.2 3.2 0.18 0.23 0.23 98 1012.5
20260507115633 17 217 1.6 3.2 0.18 0.23 0.23 98 1012.6
20260507115128 17 3 0.0 3.2 0.00 0.18 0.18 98 1012.5
20260507114624 17 35 3.2 6.4 0.00 0.18 0.18 98 1012.4
20260507114122 17 346 1.6 4.8 0.00 0.18 0.18 98 1012.3
20260507113619 17 345 4.8 4.8 0.00 0.18 0.18 98 1012.0
20260507113116 17 38 0.0 3.2 0.00 0.18 0.18 98 1012.1
20260507112614 17 327 0.0 1.6 0.05 0.18 0.18 98 1012.2
20260507112110 17 64 0.0 0.0 0.05 0.18 0.18 98 1012.1
20260507111608 17 134 0.0 3.2 0.00 0.18 0.18 98 1012.1
20260507111104 17 137 0.0 3.2 0.05 0.18 0.18 98 1011.9
20260507110601 17 105 0.0 3.2 0.13 0.18 0.18 98 1011.9
20260507110057 17 135 3.2 3.2 0.13 0.18 0.18 98 1011.7
20260507105554 17 134 1.6 3.2 0.05 0.15 0.15 98 1012.1
20260507105050 17 123 0.0 3.2 0.00 0.15 0.15 98 1012.1
20260507104548 17 133 0.0 3.2 0.00 0.15 0.15 98 1012.1
20260507104044 17 162 1.6 3.2 0.00 0.15 0.15 98 1012.2
20260507103540 17 147 0.0 3.2 0.00 0.15 0.15 98 1011.9
20260507103037 17 111 0.0 3.2 0.00 0.15 0.15 98 1011.9
20260507102533 17 146 0.0 3.2 0.00 0.15 0.15 98 1011.8
20260507102031 17 199 0.0 3.2 0.00 0.15 0.15 98 1011.9
20260507101525 17 141 0.0 3.2 0.00 0.15 0.15 98 1011.8
20260507101022 17 130 1.6 3.2 0.00 0.15 0.15 98 1011.9
20260507100519 17 218 0.0 1.6 0.00 0.15 0.15 98 1011.9
20260507100017 17 190 0.0 3.2 0.00 0.15 0.15 98 1012.0
20260507095515 17 296 1.6 1.6 0.00 0.15 0.15 98 1012.0
20260507095011 17 149 0.0 3.2 0.00 0.15 0.15 98 1011.8
20260507094507 17 140 0.0 3.2 0.00 0.15 0.15 98 1012.2
20260507094005 17 213 1.6 3.2 0.00 0.15 0.15 98 1012.4
20260507093502 17 260 3.2 3.2 0.00 0.15 0.15 98 1012.1
20260507093001 17 155 0.0 1.6 0.05 0.15 0.15 98 1012.1
20260507092456 17 7 0.0 3.2 0.13 0.15 0.15 98 1011.9
20260507091953 17 26 1.6 3.2 0.13 0.15 0.15 97 1011.9
20260507091450 17 135 0.0 3.2 0.05 0.13 0.13 97 1012.1
20260507090946 17 25 1.6 3.2 0.05 0.13 0.13 97 1012.6
20260507090442 17 241 0.0 1.6 0.05 0.13 0.13 97 1012.4
20260507085938 17 157 0.0 3.2 0.00 0.10 0.10 97 1011.9
20260507085436 17 141 0.0 1.6 0.00 0.10 0.10 97 1011.8
20260507084933 17 149 1.6 1.6 0.00 0.10 0.10 97 1011.7
20260507084430 17 140 0.0 4.8 0.00 0.10 0.10 97 1011.3
20260507083927 17 121 3.2 4.8 0.00 0.10 0.10 97 1011.3
20260507083423 17 168 4.8 6.4 0.00 0.10 0.10 97 1011.4
20260507082919 17 107 3.2 4.8 0.00 0.10 0.10 97 1011.8
20260507082415 17 157 3.2 4.8 0.00 0.10 0.10 97 1011.8
20260507081912 17 147 3.2 3.2 0.00 0.10 0.10 97 1012.1
20260507081408 17 116 1.6 3.2 0.00 0.10 0.10 97 1011.8
20260507080905 17 139 3.2 3.2 0.00 0.10 0.10 97 1011.9
20260507080401 17 171 0.0 3.2 0.00 0.10 0.10 97 1012.3
20260507075857 17 174 1.6 3.2 0.00 0.10 0.10 97 1012.1
20260507075353 17 170 0.0 3.2 0.00 0.10 0.10 97 1012.1
20260507074850 17 126 3.2 4.8 0.05 0.10 0.10 97 1012.2
20260507074347 17 105 1.6 4.8 0.18 0.10 0.10 97 1012.5
20260507073844 17 141 3.2 4.8 0.05 0.10 0.10 97 1012.3
20260507073341 17 129 3.2 4.8 0.00 0.08 0.08 97 1012.8
20260507072838 17 174 1.6 3.2 0.00 0.08 0.08 97 1012.9
20260507072336 17 156 3.2 3.2 0.00 0.08 0.08 97 1012.8
20260507071833 17 126 1.6 3.2 0.00 0.08 0.08 97 1012.6